Wind_Speed
20 23 25 24 20 18 19 20 19 17 16 16 15 16 17 19 20 18 18 20 22 25 28 27 28 30 30 29 28 28 30 30 29 30 30 30 30 30 29 28 26 26 27 28 27 28 28 27 26 25 23 21 20 20 20 19 20 21 20 18 14 12 13 14 14 14 15 14 13 12 11 11 10 10 10 10 9 8 8 8 8 8 8 8 9 10
21 26 26 21 18 18 19 19 19 17 16 16 16 17 19 21 22 20 21 23 23 25 27 27 28 31 31 31 29 29 31 32 32 32 32 32 32 32 31 31 30 29 29 29 29 29 29 29 28 26 24 22 21 21 22 21 21 22 22 20 17 14 14 15 15 15 15 15 14 13 12 11 11 10 10 9 9 8 8 8 8 8 9 10 10 11
24 27 24 19 17 19 19 19 18 16 15 15 16 18 20 20 21 22 23 23 21 23 25 26 29 33 33 33 32 33 35 35 34 34 33 33 34 33 33 32 31 31 31 31 31 31 31 30 29 27 25 24 22 22 22 22 22 22 23 22 19 17 16 16 16 16 16 15 15 13 13 12 11 11 10 9 9 9 8 9 9 9 10 11 12 12
25 23 17 13 14 16 19 19 18 17 18 18 19 21 23 23 22 23 23 21 20 21 24 27 32 38 38 37 37 35 34 32 31 31 30 30 31 30 29 28 27 27 26 28 30 32 33 31 30 28 25 25 24 23 22 22 22 22 23 23 21 19 18 17 17 16 16 15 15 14 13 12 12 11 10 9 9 9 9 9 10 10 11 12 13 13
29 24 20 18 16 16 17 18 18 18 20 21 22 23 24 23 21 22 22 20 21 23 25 28 33 41 41 36 34 30 26 25 25 26 27 27 27 27 27 28 27 26 24 24 25 28 31 32 31 28 25 25 25 23 23 23 22 22 22 22 21 20 19 19 17 16 16 15 15 14 13 12 11 10 10 9 9 10 10 11 11 12 12 12 13 13
32 27 24 25 23 22 22 23 21 19 20 21 23 24 24 22 20 20 20 20 23 24 24 23 20 27 34 32 32 32 30 29 28 29 30 28 29 30 30 30 28 26 24 22 22 24 27 29 31 30 27 25 25 24 23 23 23 22 22 22 21 20 20 19 18 17 16 16 15 15 13 11 10 10 10 10 11 11 12 12 12 12 12 12 13 14
34 28 24 25 23 23 25 26 25 23 22 24 26 26 24 23 21 20 19 19 20 18 19 19 13 21 38 42 39 38 35 33 30 29 30 29 30 30 29 29 27 25 23 23 24 25 25 27 29 30 27 25 25 25 24 23 23 22 22 21 21 20 20 20 19 18 17 16 16 15 14 12 11 11 11 12 12 12 12 12 11 11 12 13 14 15
31 27 25 25 23 24 26 26 26 25 25 26 27 25 23 23 21 20 20 20 21 22 22 23 21 25 39 45 41 36 33 32 31 29 28 25 23 23 24 24 24 23 23 25 26 27 26 26 28 29 28 26 26 26 25 24 22 22 22 22 21 21 21 21 20 18 17 16 16 15 14 13 13 13 13 13 13 12 11 11 12 12 13 14 15 16
30 27 25 25 24 25 26 24 22 24 25 26 25 24 22 22 20 20 21 21 23 24 22 25 24 19 29 39 36 33 33 32 30 26 22 18 17 18 19 20 21 22 24 25 26 27 27 27 27 28 28 27 27 26 25 24 23 23 23 23 22 21 21 21 20 19 18 18 17 16 15 14 14 14 14 13 12 11 11 12 13 14 15 15 16 17
31 29 27 26 27 28 25 21 21 22 24 25 24 23 22 20 19 19 19 21 22 19 19 24 24 17 23 32 27 26 30 28 25 23 20 20 19 18 17 18 20 22 24 25 27 27 27 27 28 28 29 28 27 26 26 25 24 24 24 23 22 21 21 21 21 20 20 19 17 16 15 15 15 14 14 13 12 12 12 13 14 15 16 17 18 19
34 32 30 29 30 29 25 22 22 22 23 24 22 20 19 19 20 19 19 21 15 13 21 29 30 23 14 12 10 14 21 24 25 26 23 21 19 18 16 17 19 21 23 24 26 26 26 27 28 29 30 29 27 27 27 26 25 24 23 22 21 21 22 23 22 22 21 19 18 16 16 15 15 14 14 13 13 13 14 15 16 17 18 19 20 21
35 35 34 34 34 31 27 25 25 25 25 24 22 20 17 14 14 14 14 13 6 7 18 24 25 25 20 12 10 13 21 28 28 25 22 19 16 16 17 17 19 20 23 24 24 24 25 26 27 29 30 29 28 27 27 25 24 23 22 22 22 22 24 24 23 22 21 19 18 18 17 16 16 15 15 15 15 15 16 17 18 18 20 21 22 23
37 39 36 34 34 34 30 27 26 26 27 26 24 22 15 6 4 5 4 4 7 11 15 13 11 20 31 33 28 26 29 28 23 21 22 20 17 17 17 19 20 20 22 23 23 22 22 23 24 27 27 27 27 26 25 24 23 22 22 22 22 23 25 25 24 22 21 20 19 19 18 17 17 17 16 16 16 17 18 19 20 21 22 23 24 25
32 33 37 37 36 37 36 34 31 29 29 29 29 26 18 6 1 3 4 3 8 13 15 14 12 17 27 33 32 29 26 21 20 22 22 20 20 21 21 21 21 20 21 22 22 20 19 20 22 24 25 25 26 25 24 24 23 22 22 23 23 25 26 25 24 23 22 21 21 20 20 19 19 18 18 18 18 19 20 21 22 23 24 24 25 26
24 22 31 34 33 34 35 35 36 35 31 30 30 28 24 17 9 5 4 4 4 6 7 11 11 10 14 21 24 22 23 27 30 29 24 23 25 25 25 23 22 21 19 20 21 19 17 19 21 22 24 24 24 24 24 24 23 22 22 23 24 25 26 25 25 24 23 22 22 21 21 20 20 19 19 19 19 20 21 23 24 24 25 26 26 27
24 25 29 26 23 21 18 21 29 33 30 27 26 26 28 28 23 13 6 7 6 6 5 12 14 19 24 31 33 31 34 36 33 31 26 23 22 22 23 23 22 21 19 20 22 22 19 19 22 23 24 24 24 25 24 23 22 22 22 23 24 25 25 26 25 24 23 23 22 22 21 21 20 20 20 20 21 22 23 24 25 26 26 27 28 28
22 25 28 25 24 20 14 13 20 26 25 23 26 30 30 28 25 20 11 9 9 8 8 13 20 29 33 37 37 32 32 28 23 24 22 19 19 18 19 20 20 20 20 20 23 25 23 22 23 24 24 24 24 25 24 23 22 21 21 22 23 24 25 25 25 24 24 24 23 23 22 21 21 21 21 22 23 24 25 25 26 27 28 28 29 29
24 21 22 23 23 22 21 18 19 25 26 24 24 27 27 23 22 19 8 4 3 5 7 12 21 28 25 24 27 26 23 20 19 20 19 17 16 15 16 17 18 19 20 20 21 25 25 24 24 23 23 24 25 25 24 22 21 20 21 22 23 24 24 25 25 25 25 24 24 23 22 22 22 22 22 23 24 25 26 26 27 28 29 29 30 31
29 20 18 20 20 18 21 22 21 25 28 27 24 22 20 17 15 17 10 3 2 3 6 8 16 28 32 30 32 31 25 21 19 17 15 12 12 13 14 15 16 18 19 18 19 22 24 23 22 22 22 23 24 23 22 21 20 20 21 22 23 24 24 25 25 25 25 25 24 24 23 23 23 23 24 24 25 26 27 27 28 29 30 31 32 34
33 24 17 20 21 19 22 26 27 27 27 29 27 23 21 16 13 19 18 8 4 3 5 5 8 20 30 32 29 24 19 14 12 12 12 10 13 15 13 14 16 17 18 17 17 19 21 20 20 20 20 21 20 20 18 18 19 20 21 22 24 25 25 26 26 27 26 26 25 25 24 24 24 24 25 26 26 27 27 28 29 30 31 33 35 35
34 29 20 18 21 24 27 29 29 29 29 32 31 27 26 23 16 15 19 19 12 5 2 3 7 13 15 13 7 5 5 6 7 14 19 15 14 15 12 14 16 16 18 18 18 19 20 19 20 20 20 18 17 16 17 17 18 20 22 23 24 25 26 26 27 27 27 27 26 26 25 24 25 25 26 27 27 28 29 29 30 32 33 35 36 36
35 33 28 24 26 30 32 30 29 30 31 32 32 32 31 30 23 13 11 21 25 17 9 4 8 20 18 6 3 3 7 10 10 15 22 20 18 17 14 14 16 18 19 19 20 21 21 21 21 20 18 16 15 16 17 19 20 21 23 24 25 26 26 27 28 28 28 27 27 26 26 25 26 27 27 28 29 29 29 30 31 34 36 37 37 37
35 34 31 29 30 30 28 27 27 27 30 32 32 33 30 31 33 25 12 13 20 26 24 11 11 26 28 17 14 16 16 15 14 16 20 21 22 19 14 14 16 18 21 21 22 22 21 22 21 20 18 17 17 17 18 20 21 22 24 25 26 27 27 28 29 29 29 29 28 27 27 27 27 28 28 29 30 30 30 31 33 36 37 37 37 38
31 31 29 25 25 26 24 26 28 27 29 34 35 33 32 35 38 34 26 18 16 24 24 10 9 25 27 20 19 18 15 15 17 20 20 23 25 20 15 16 17 19 22 24 25 24 23 23 24 23 21 19 17 17 18 21 23 24 25 25 26 27 28 29 30 30 30 30 29 28 28 28 28 29 29 30 30 30 31 33 35 37 38 38 38 39
29 32 28 16 10 13 16 19 25 28 29 32 34 34 36 39 37 34 34 28 24 30 26 12 16 32 31 24 19 15 16 21 22 23 22 23 24 21 16 17 19 20 23 26 28 28 27 25 25 24 22 19 17 17 19 22 24 24 25 25 26 27 28 30 30 31 31 30 30 30 29 30 29 30 31 31 31 31 32 35 36 38 38 38 39 39
32 36 35 23 12 11 14 15 21 29 33 34 37 38 39 40 38 37 36 31 28 31 28 25 33 43 39 31 26 24 26 30 30 28 28 25 22 21 20 19 20 21 22 27 30 30 29 27 25 24 23 22 20 21 22 23 24 25 25 26 27 28 29 31 32 32 32 32 32 32 31 31 31 32 32 32 32 33 34 36 37 38 39 39 39 39
35 37 40 38 34 33 35 33 28 28 31 35 38 41 43 42 40 39 37 38 37 26 27 43 49 47 47 43 38 39 37 36 35 33 31 26 22 24 24 21 21 21 22 27 31 32 31 29 27 26 26 26 25 24 23 24 25 26 26 27 27 29 31 33 34 34 34 34 34 33 33 32 33 34 34 34 34 35 36 36 37 39 39 39 39 40
36 37 39 42 43 45 47 44 40 36 35 36 36 37 41 41 41 43 43 47 42 25 30 52 48 44 55 53 46 47 42 38 37 34 32 28 25 26 26 23 23 23 23 27 31 33 33 31 30 30 29 29 28 26 24 24 26 27 27 28 29 31 33 34 36 36 36 36 36 35 34 34 35 35 35 36 36 36 36 37 38 39 39 39 40 41
39 39 41 42 43 46 48 46 46 45 42 40 36 33 35 34 38 46 49 50 44 35 41 54 46 47 59 53 45 45 40 39 39 35 31 29 28 29 27 25 26 26 26 27 30 33 34 34 33 32 32 31 29 27 26 26 26 27 28 30 31 33 34 35 37 38 38 39 38 36 36 36 36 37 37 37 37 37 37 37 39 40 40 40 41 41
40 41 43 43 44 48 50 48 47 45 43 43 41 38 39 41 44 49 49 46 45 46 53 56 50 55 60 51 47 46 43 44 42 35 33 32 31 31 29 28 29 28 28 28 29 34 36 36 35 33 33 32 29 27 27 27 27 28 30 31 32 33 34 36 38 39 40 41 40 39 38 38 38 39 39 39 38 38 38 38 40 41 41 41 42 43
42 42 41 41 41 45 51 50 46 44 43 44 44 45 49 52 50 48 45 43 45 51 56 55 54 61 63 55 51 50 48 48 44 41 40 37 34 33 31 31 31 30 29 29 30 34 36 36 35 34 34 31 28 28 29 29 29 30 32 32 33 34 36 38 39 40 42 42 41 40 39 39 40 40 40 40 39 39 39 40 41 41 41 42 43 44
44 43 41 37 33 41 53 49 42 46 44 41 46 53 58 56 49 45 46 47 49 52 53 52 56 63 62 55 52 52 50 48 47 46 44 40 38 36 34 35 34 32 31 31 32 35 37 38 37 36 34 30 28 30 32 32 32 32 34 35 36 38 38 39 40 40 42 42 41 40 40 40 41 41 41 41 40 40 40 41 42 42 42 43 44 44
46 44 45 39 30 40 52 43 36 38 29 29 49 63 64 60 53 51 53 53 51 51 50 53 59 62 58 54 53 53 52 50 48 46 42 40 40 38 37 38 36 33 32 32 34 35 36 38 37 36 35 32 31 32 33 34 34 35 37 38 40 41 40 39 39 39 40 40 39 40 40 41 42 42 42 42 41 41 42 42 43 43 43 43 44 45
47 46 48 42 32 37 46 38 28 22 17 32 57 63 58 56 55 54 56 56 55 55 55 58 60 59 56 56 56 55 53 52 49 46 43 40 39 37 37 37 34 32 32 33 35 35 37 39 39 38 38 36 35 34 35 37 37 38 40 42 43 43 41 40 39 39 38 38 37 39 40 41 42 42 42 43 42 43 44 43 43 43 43 44 44 45
46 47 48 44 36 34 37 29 15 11 25 49 58 54 52 52 50 49 50 52 54 55 57 60 60 59 58 58 57 55 54 53 50 48 46 43 39 35 33 33 33 33 33 35 36 37 39 41 41 41 40 40 39 37 37 39 39 40 42 43 43 42 41 41 40 38 36 36 37 39 40 41 42 42 43 44 44 44 44 43 43 42 43 43 44 44
45 45 46 44 39 30 24 19 14 16 32 46 45 47 51 48 42 42 43 48 50 50 52 56 55 54 54 53 53 53 52 52 50 49 48 45 39 33 30 31 31 31 34 36 36 37 38 40 42 43 43 42 39 36 37 38 39 40 42 42 41 40 39 39 39 36 35 35 37 38 39 40 42 43 44 44 43 43 41 41 41 41 42 43 43 43
48 46 45 42 38 33 26 25 29 29 34 42 46 48 47 42 40 38 37 44 48 42 41 44 44 43 42 42 43 44 46 50 51 50 49 44 37 31 30 31 32 33 36 37 36 37 38 40 42 42 40 37 35 34 36 38 39 40 40 40 38 37 36 37 36 35 35 36 37 38 39 40 41 42 42 41 41 40 40 40 41 41 42 43 42 41
51 48 47 41 37 38 33 25 19 16 24 43 52 48 43 41 40 32 28 39 48 42 35 35 36 36 32 30 32 34 39 47 51 49 46 41 35 32 31 32 34 36 37 38 38 40 41 41 39 36 33 33 33 35 36 37 38 39 38 37 36 34 35 35 35 35 36 36 37 38 39 39 39 40 40 40 41 41 41 40 41 41 41 40 39 39
52 49 50 44 34 34 32 20 11 13 25 41 44 38 36 35 30 22 20 34 46 41 32 31 33 32 29 27 28 32 37 45 47 43 40 36 33 32 32 33 35 37 40 41 41 41 38 35 32 31 32 34 35 35 36 36 37 38 37 37 36 36 37 36 35 36 37 38 39 39 39 40 41 42 43 43 43 42 41 40 39 40 40 39 39 39
51 48 48 45 37 35 33 24 20 25 33 40 38 32 28 23 18 13 12 22 33 29 23 24 25 25 25 25 26 31 36 39 38 35 34 33 32 33 34 36 37 39 39 39 36 33 30 29 30 32 34 35 35 35 35 36 37 37 37 37 38 38 37 36 36 38 39 40 40 41 42 43 43 44 43 42 41 40 39 40 40 40 40 39 39 39
47 48 47 47 45 42 37 30 27 32 38 41 37 30 21 12 13 17 17 21 25 21 17 18 19 20 23 25 27 29 30 32 31 30 30 30 28 28 29 30 31 31 30 29 28 28 29 30 32 33 34 33 33 33 34 35 37 37 37 38 38 36 35 36 38 39 40 40 41 41 41 41 40 40 39 39 39 40 41 41 41 40 39 38 38 38
41 40 39 45 46 43 41 34 26 30 41 42 33 27 22 17 19 25 27 26 24 21 18 16 17 19 21 22 23 23 22 24 25 24 24 24 22 22 22 23 24 25 25 27 29 30 31 32 31 31 31 31 31 32 33 35 35 36 37 37 35 34 35 36 37 37 37 37 36 36 36 37 37 38 38 39 40 40 40 40 38 38 37 37 37 36
36 33 34 42 44 37 32 25 15 21 39 42 33 29 30 28 27 27 25 23 23 22 19 17 17 19 19 18 18 18 18 20 21 20 21 21 21 21 21 22 23 24 26 28 29 30 30 30 30 29 29 29 29 30 31 32 32 33 34 33 32 32 33 33 33 33 33 33 33 34 35 36 37 38 38 39 38 38 37 36 36 36 35 35 35 35
31 32 33 39 39 31 26 24 23 29 38 37 32 32 33 32 30 27 23 23 22 20 20 20 19 18 16 15 16 16 17 18 19 20 21 21 21 21 22 23 23 24 26 27 28 30 30 29 29 28 27 28 28 28 29 30 31 31 30 29 29 29 30 30 30 31 32 33 34 35 35 36 36 37 37 36 36 35 35 34 33 33 33 33 34 34
29 33 34 33 33 32 31 33 35 37 36 31 28 28 28 29 30 27 25 25 24 21 21 20 17 15 15 15 16 17 19 19 20 21 21 21 22 21 21 22 23 24 26 27 27 28 28 27 27 27 27 28 28 28 29 29 29 28 27 27 28 28 29 30 31 32 32 33 34 34 35 35 35 35 35 34 34 33 33 32 32 32 33 33 34 35
29 32 33 31 30 30 32 34 34 33 32 29 26 23 23 26 28 28 26 26 25 22 19 17 16 16 16 16 16 16 17 18 19 19 20 21 21 21 22 23 24 24 25 25 25 25 25 26 26 26 26 27 27 27 28 28 28 27 28 28 29 29 30 31 32 32 32 33 33 34 34 34 34 34 33 33 32 32 32 32 33 33 34 35 35 36
29 28 27 27 27 25 25 29 31 29 26 24 21 19 20 22 25 26 25 22 21 20 18 18 17 16 15 15 15 14 15 17 18 19 20 21 21 22 23 23 24 25 25 24 24 25 25 25 25 25 26 26 26 27 27 28 28 29 30 30 30 31 31 32 32 32 32 33 33 33 34 34 33 33 33 33 33 33 33 34 34 35 36 36 37 38
24 24 22 23 24 23 21 21 22 23 21 20 20 19 19 20 21 22 21 20 19 19 18 17 16 15 14 14 14 15 17 18 19 20 21 21 22 23 23 23 23 23 23 23 24 24 25 25 25 25 25 26 27 28 28 29 30 30 31 31 31 31 32 32 32 32 32 32 33 33 33 33 33 33 33 33 33 34 34 35 36 37 38 38 39 40
18 20 20 20 21 22 22 20 19 19 20 20 21 20 20 20 20 19 19 18 18 17 17 16 16 15 15 15 16 17 18 18 19 20 20 21 21 21 21 22 22 22 23 23 24 25 25 25 25 26 26 27 28 29 29 30 30 31 32 32 32 32 32 31 31 32 32 32 33 33 33 34 33 34 34 34 35 35 36 37 38 39 40 40 41 42
21 21 20 21 21 22 22 21 19 20 21 20 20 19 19 19 19 18 17 17 16 16 16 16 15 16 16 17 17 17 17 18 18 18 19 19 19 20 21 21 21 22 23 23 23 24 24 25 25 26 27 27 29 30 30 31 31 31 32 31 31 31 30 30 31 31 32 32 32 33 33 34 34 34 35 35 36 37 38 39 40 41 41 42 43 44
25 23 22 23 23 23 21 19 19 20 20 18 17 16 16 17 17 16 15 15 16 17 17 16 16 17 18 18 18 18 17 17 17 17 18 18 18 19 20 21 21 22 22 22 22 23 24 24 25 26 27 28 29 30 30 30 30 30 29 29 29 29 29 29 30 31 32 32 32 32 33 33 34 35 35 36 37 38 39 40 41 42 43 44 44 45
Wind_Direction
260 259 257 257 261 264 266 271 275 274 270 268 265 263 262 262 262 257 258 267 275 280 282 282 283 285 285 286 288 289 288 286 285 285 285 285 285 285 284 283 281 279 277 276 274 274 275 274 272 269 267 263 260 258 255 249 242 235 234 237 239 238 237 236 235 238 241 241 240 235 230 230 229 226 225 226 230 237 245 254 260 267 276 284 289 293
259 259 260 264 267 267 267 269 272 270 268 269 270 269 264 262 267 270 271 275 279 278 280 283 282 281 283 284 284 284 283 284 285 286 286 287 287 286 284 282 280 277 274 273 272 272 273 273 272 269 266 263 258 255 252 247 242 237 235 238 245 246 238 234 232 232 234 236 234 230 226 226 226 225 226 228 233 242 251 258 266 274 282 289 293 296
262 264 268 272 268 263 262 264 267 266 264 264 265 266 266 268 275 280 282 285 285 280 280 282 278 277 279 280 280 280 281 284 285 285 285 285 283 282 282 281 280 278 275 272 270 269 269 269 268 267 264 262 258 253 250 245 241 239 238 239 245 249 241 233 230 230 232 234 232 228 226 223 222 223 226 230 237 245 255 263 272 280 285 290 293 296
264 268 274 271 263 260 261 260 257 252 251 253 254 258 265 273 280 283 287 291 287 281 279 280 280 279 281 281 281 282 282 283 283 283 282 279 279 281 281 281 278 277 277 273 268 265 264 263 263 264 263 261 257 252 248 243 241 241 241 242 246 250 246 236 230 229 231 232 229 225 222 220 220 221 226 232 239 247 256 265 272 278 283 287 291 295
264 266 268 268 265 260 260 260 254 246 246 250 251 254 264 274 278 282 288 288 282 279 278 283 286 285 285 285 285 286 283 282 284 284 282 280 281 283 281 281 280 280 277 273 269 264 261 259 259 259 258 258 255 251 246 240 239 240 241 243 248 252 248 239 232 228 229 227 224 221 219 220 222 225 231 236 242 250 258 265 270 275 281 286 292 296
267 267 266 266 265 262 261 262 260 256 253 255 257 259 267 273 276 280 282 278 277 278 279 285 290 287 287 287 287 288 285 284 287 286 286 286 284 283 284 283 282 280 273 266 266 266 263 260 256 254 252 254 253 249 243 236 235 238 239 240 246 250 247 238 232 228 225 222 219 218 216 219 225 230 236 240 245 252 258 264 270 277 285 291 296 298
267 266 264 261 260 260 260 260 260 260 258 258 263 267 271 274 275 275 273 268 270 275 279 280 280 286 288 287 286 288 288 288 288 287 289 291 287 285 285 281 278 276 270 264 264 267 268 265 260 253 249 250 251 246 239 233 233 235 236 237 240 243 240 233 230 227 224 222 220 219 218 219 224 231 238 242 247 252 258 266 274 282 289 293 294 293
264 266 263 261 260 255 254 257 261 261 257 257 266 273 274 275 275 271 267 263 264 270 273 272 275 281 284 286 290 292 292 292 291 292 296 295 290 287 282 276 274 273 269 265 265 267 266 266 262 251 243 244 245 241 234 229 231 233 231 233 235 235 232 229 228 227 224 222 221 221 222 223 226 231 239 244 249 256 263 271 280 285 288 288 287 287
265 267 266 267 264 257 255 260 264 261 257 258 267 273 272 273 271 266 264 261 266 273 269 268 272 274 276 281 289 293 292 293 296 298 302 300 296 294 286 277 271 268 267 265 264 266 264 264 261 246 236 238 240 235 230 227 229 230 229 231 233 231 228 228 228 226 224 222 221 222 223 226 230 233 239 246 252 261 269 275 280 283 283 283 283 283
262 262 263 265 261 259 260 260 259 257 256 259 265 268 268 269 264 259 260 262 268 270 260 263 267 263 276 283 285 289 290 293 299 302 306 307 302 298 289 280 275 269 266 262 260 261 261 262 259 241 229 232 236 231 227 226 228 228 230 232 232 229 228 227 226 225 222 222 222 222 224 227 231 236 242 249 257 264 269 274 276 278 278 280 280 281
254 256 255 255 256 257 256 253 252 254 255 257 259 259 261 262 258 256 259 263 270 267 257 265 267 257 270 294 284 284 289 294 300 303 309 311 304 298 289 281 281 277 269 262 256 254 254 258 254 236 225 228 231 228 224 226 228 228 231 232 230 228 226 225 224 224 222 223 223 223 225 229 233 240 247 254 260 264 267 270 272 274 276 278 279 280
249 250 249 249 251 250 248 248 250 251 251 251 250 249 250 255 260 260 257 253 252 262 264 272 271 251 238 251 265 275 285 292 299 306 311 310 303 299 292 283 282 282 276 265 255 249 248 251 246 232 224 226 226 225 224 226 228 230 233 233 230 227 225 224 225 224 223 222 224 226 228 232 237 242 249 254 259 262 265 268 270 273 275 277 279 281
248 248 246 246 247 246 246 245 244 244 243 243 239 232 229 237 281 261 235 229 232 248 265 270 257 239 242 256 267 272 281 290 297 304 306 303 299 299 297 291 283 278 278 269 253 247 246 243 237 228 224 224 224 224 225 228 229 232 233 231 229 226 225 225 225 224 224 224 226 229 231 235 240 244 249 253 257 261 265 268 271 273 275 277 279 280
244 249 245 242 245 247 246 241 239 240 238 236 234 226 215 188 61 255 227 250 253 256 262 249 236 243 253 266 274 276 282 291 295 299 300 295 292 293 293 293 286 277 274 266 249 241 240 232 226 223 221 221 222 224 226 228 230 231 230 228 226 226 225 226 226 225 225 225 227 230 233 237 242 245 249 253 258 262 266 269 271 273 275 277 279 280
234 246 246 245 249 251 251 249 250 251 245 242 244 239 228 217 215 229 208 207 251 280 250 213 214 237 251 271 281 282 287 292 293 294 292 289 290 290 287 285 284 279 271 258 243 232 229 225 220 219 218 218 220 222 225 227 228 227 225 226 226 227 228 228 228 228 227 228 230 233 236 240 244 248 252 256 260 265 268 270 272 274 277 279 281 283
232 245 252 250 251 251 249 249 248 245 242 243 240 232 232 234 235 242 245 241 269 309 246 203 223 248 259 271 276 279 285 289 293 292 290 290 288 285 284 279 276 276 268 252 238 229 228 227 224 222 219 218 218 220 223 222 221 222 224 227 228 228 229 230 230 230 230 231 233 236 239 243 247 252 255 259 263 266 269 271 273 276 279 281 283 286
227 242 250 244 241 239 227 228 233 231 230 227 222 223 233 238 236 240 259 275 278 290 257 225 243 259 267 275 275 276 283 288 293 296 294 293 285 279 279 276 272 272 266 252 238 233 235 233 229 226 221 218 218 218 218 216 217 221 225 228 230 230 230 231 231 232 232 234 236 238 242 246 250 253 257 261 265 268 271 274 276 279 281 283 286 288
235 242 249 242 237 234 228 225 223 224 223 215 218 229 234 234 231 230 249 310 276 271 262 235 250 264 265 271 277 276 280 288 293 296 294 292 292 290 280 271 269 268 261 251 239 233 234 232 227 224 219 216 216 214 214 216 219 223 227 229 230 232 233 233 234 234 234 236 238 241 244 248 252 255 259 264 268 271 273 275 278 280 283 286 288 291
239 243 248 241 234 227 225 222 214 215 218 218 228 232 218 215 216 208 212 263 214 243 288 248 250 263 258 260 275 279 279 286 290 290 290 289 298 302 285 268 266 266 258 248 239 231 228 226 221 217 216 214 212 213 215 219 224 227 230 231 231 231 231 232 234 235 236 237 240 243 246 249 253 258 262 267 271 274 276 278 281 283 286 289 291 292
232 236 240 233 226 218 216 217 212 212 213 214 222 223 213 212 207 204 210 216 184 208 279 265 249 263 267 270 277 279 279 282 283 290 292 287 293 300 289 266 261 263 255 244 237 230 224 220 218 215 214 212 211 216 222 227 232 235 235 235 234 233 233 234 236 237 238 240 243 245 248 251 256 261 266 270 273 275 278 281 284 287 289 291 292 293
226 228 236 227 216 213 215 220 225 230 228 220 217 214 211 210 205 212 224 225 221 214 228 264 264 268 285 300 285 257 283 271 264 293 296 288 290 299 290 266 257 256 251 240 234 231 225 221 220 216 213 212 216 222 230 236 239 240 240 238 237 237 238 239 240 240 242 243 245 247 250 255 260 265 269 272 274 276 280 283 286 289 290 291 292 293
220 224 232 227 218 219 225 234 240 245 245 241 237 231 224 220 212 212 232 228 227 230 227 231 276 274 278 283 193 224 290 271 257 288 296 291 292 298 289 265 252 253 253 243 234 232 229 226 222 219 217 219 226 233 238 242 243 244 244 241 241 241 242 242 242 243 244 245 246 248 252 258 262 267 271 272 275 278 282 285 288 290 291 291 292 294
222 223 230 231 233 238 240 240 237 238 240 239 240 238 235 233 226 218 220 224 223 234 241 245 276 275 272 265 259 269 274 269 268 280 287 290 294 298 287 262 252 252 252 245 235 230 230 229 223 220 222 225 233 239 242 246 247 248 247 244 244 244 244 244 243 244 244 245 247 250 255 261 265 269 271 272 275 279 283 287 289 290 290 290 292 294
216 219 226 231 242 246 242 238 234 232 229 226 228 232 232 235 233 228 233 240 239 238 234 226 261 267 271 274 271 269 261 263 277 279 277 285 293 295 282 263 257 254 252 249 241 235 232 229 223 223 226 230 240 247 249 251 251 250 249 247 247 247 246 245 245 245 246 247 250 254 259 264 268 269 270 272 275 279 284 287 288 288 289 290 292 294
217 216 218 219 242 248 238 234 228 223 222 224 230 234 233 235 235 232 234 238 251 251 232 212 251 259 265 272 265 260 261 268 281 281 277 284 289 286 277 263 258 258 256 252 248 244 240 236 232 230 231 236 250 259 258 256 255 255 254 252 251 251 250 249 249 249 249 250 253 258 263 266 268 269 269 271 275 280 284 286 287 287 288 290 291 292
237 226 221 213 211 227 233 230 226 226 226 228 233 235 235 235 232 231 232 229 241 249 233 227 248 256 260 263 261 263 269 275 281 280 280 283 275 269 275 271 261 259 257 254 252 248 244 243 240 237 237 243 257 266 262 256 257 259 258 257 256 256 255 254 253 253 252 253 256 260 264 266 267 268 269 271 275 279 282 284 285 286 288 290 291 292
239 231 230 228 229 236 242 245 248 244 233 232 240 242 239 238 234 230 230 230 233 236 238 243 249 256 260 258 259 265 270 275 278 279 283 280 260 260 277 275 261 257 256 254 252 247 243 244 244 241 243 248 257 266 262 254 255 257 258 260 260 259 259 257 255 254 253 254 257 261 264 266 266 267 268 271 274 277 280 282 285 287 288 290 291 291
230 227 232 236 240 246 250 254 257 255 248 247 249 247 242 240 237 230 230 238 238 227 245 255 252 256 262 262 261 266 271 275 277 279 283 276 260 263 275 267 255 255 254 252 251 247 244 244 246 245 246 248 255 264 261 253 253 255 257 259 260 261 262 260 257 255 254 255 259 262 264 264 265 266 268 271 273 276 279 283 285 287 288 289 289 290
230 232 237 241 245 250 253 254 254 251 252 253 249 245 243 240 238 236 237 244 239 228 249 261 257 258 267 267 265 270 275 278 279 280 278 270 261 263 265 257 251 252 252 252 251 248 244 244 246 247 245 246 253 262 259 252 253 255 257 259 260 261 262 261 259 257 256 258 260 262 262 263 264 265 267 270 273 276 280 283 285 286 287 288 288 289
230 236 241 244 247 251 253 253 251 247 247 249 247 246 248 247 247 247 247 250 244 241 256 264 259 261 267 267 266 272 277 277 277 275 271 268 265 263 258 251 250 252 254 252 249 246 243 243 245 245 242 244 253 260 257 253 255 258 260 261 261 262 263 264 263 261 260 260 260 261 262 262 263 265 268 271 273 276 279 282 284 285 286 287 288 289
226 232 238 240 242 247 251 251 248 244 243 245 247 250 252 252 250 247 248 251 247 247 256 259 256 260 264 263 265 270 272 272 273 273 273 272 268 264 257 251 253 256 255 250 248 246 241 240 242 241 239 245 255 260 257 256 258 260 261 261 261 263 265 266 267 265 263 262 261 261 262 262 263 266 269 271 273 276 279 281 283 284 285 285 286 287
226 229 234 235 235 244 249 249 245 243 243 241 245 250 250 248 246 245 248 252 248 247 252 251 250 258 263 264 267 269 269 271 273 274 275 273 269 265 259 257 260 261 256 250 248 245 242 243 243 241 241 247 254 258 257 256 256 257 259 260 262 265 266 265 266 265 264 262 261 260 261 262 264 267 269 271 274 276 278 279 281 282 283 284 285 285
231 230 233 233 232 243 250 250 245 243 242 238 243 250 250 247 247 249 252 254 251 247 247 246 251 262 267 266 268 271 272 274 274 275 277 276 272 268 263 261 261 260 256 252 248 246 245 244 241 240 243 248 253 255 254 253 253 254 257 261 265 265 262 260 262 263 262 261 259 260 261 263 266 268 270 272 275 276 277 278 280 281 282 283 283 283
232 231 232 232 231 241 249 250 245 237 233 243 249 252 254 252 251 251 254 258 257 252 250 253 260 268 268 267 270 273 274 276 277 278 279 276 273 270 265 261 257 254 253 250 247 245 244 242 240 241 244 248 254 256 252 251 253 256 259 263 265 263 258 256 256 257 257 257 258 260 262 264 267 269 271 273 274 275 276 278 280 281 281 281 281 282
233 233 232 231 230 238 245 246 237 224 239 249 255 257 258 258 257 255 258 263 261 257 255 257 261 265 266 267 271 273 274 276 277 277 276 273 270 267 260 254 252 252 251 247 243 241 241 241 241 243 246 252 258 257 251 251 255 258 261 263 262 260 257 255 253 252 251 253 256 259 261 264 266 268 270 272 273 275 277 278 279 280 280 279 280 280
235 235 234 231 231 234 234 227 226 243 251 254 258 259 258 258 257 254 257 262 264 262 260 260 264 268 267 267 269 270 271 272 272 272 271 269 267 261 252 249 248 248 245 240 236 236 238 240 242 246 252 255 256 252 252 255 258 259 260 259 258 256 254 252 249 247 248 252 255 258 261 264 267 269 270 272 273 275 276 277 277 277 277 277 278 279
237 237 237 233 232 232 228 229 241 253 260 259 258 258 258 259 260 259 260 266 270 269 264 265 269 270 267 266 266 267 267 267 267 266 266 265 263 256 248 243 239 236 234 232 233 238 243 246 249 252 253 253 251 253 257 260 260 259 257 255 253 251 250 250 250 251 254 257 259 262 265 267 268 269 270 271 271 272 274 274 274 274 274 275 276 277
240 240 239 234 231 232 232 236 244 248 257 258 257 259 261 262 264 264 264 269 273 271 265 263 266 266 264 262 259 257 258 260 260 260 262 262 259 251 243 239 236 234 233 235 241 248 251 253 253 251 250 251 254 258 260 261 260 258 254 250 248 250 252 255 257 259 260 262 263 265 266 266 267 267 267 269 270 272 272 272 271 271 272 273 274 275
240 239 239 235 229 228 227 230 233 232 248 256 260 262 262 262 265 259 253 265 271 270 265 262 264 265 262 256 251 248 250 253 255 257 259 257 252 245 240 237 237 237 239 244 249 253 253 251 249 248 252 256 258 259 259 259 257 253 249 247 249 253 257 260 261 262 262 263 263 263 263 264 265 266 268 270 271 272 271 270 269 270 271 272 272 273
233 234 233 230 228 228 227 230 238 241 248 255 260 263 263 264 258 230 223 259 267 268 268 266 265 262 254 246 243 242 244 249 253 257 256 252 247 243 241 240 240 242 245 249 252 253 251 250 250 253 256 257 257 257 255 253 250 247 247 249 253 257 261 262 262 262 261 261 262 262 263 264 266 267 269 270 270 269 269 269 269 270 271 271 272 272
225 227 227 228 230 231 230 232 239 245 250 253 254 256 258 248 218 209 225 255 264 265 266 258 252 249 242 236 234 237 242 248 252 254 253 249 245 243 242 243 244 246 248 250 251 252 252 254 255 256 257 257 256 253 250 248 247 248 250 254 258 262 263 263 262 262 262 262 263 263 264 265 266 267 267 267 267 268 269 270 271 271 271 271 271 271
217 219 221 225 229 231 231 233 239 247 250 249 247 246 244 226 216 229 243 252 255 257 255 244 236 233 229 225 226 228 232 237 240 242 240 236 233 233 234 238 242 245 248 250 251 253 254 255 256 257 257 255 252 249 248 248 249 252 255 259 262 263 262 261 261 262 262 262 262 263 263 264 265 265 266 266 268 269 270 271 271 270 270 270 270 271
221 215 214 221 225 226 228 231 235 245 247 246 244 242 241 235 235 244 248 244 245 246 239 227 218 213 208 207 209 211 215 221 226 230 232 233 235 238 242 245 246 247 249 251 252 254 255 257 257 256 255 253 251 251 252 252 255 257 259 261 262 261 261 260 261 261 261 262 263 264 265 265 266 266 267 268 269 269 269 269 268 268 269 269 270 271
223 217 216 222 224 220 218 222 231 242 247 249 248 244 242 240 240 240 236 232 232 228 219 211 205 203 208 212 213 220 227 232 237 243 247 251 252 252 253 253 251 251 252 253 254 255 256 257 257 256 256 256 256 257 257 258 260 261 261 262 262 261 261 261 262 263 265 266 267 267 268 267 267 267 267 267 267 267 267 268 268 269 270 270 271 271
223 225 226 229 227 224 225 230 237 242 245 248 247 244 240 237 234 231 228 225 218 212 211 211 212 223 236 240 241 246 248 250 254 255 257 259 259 258 257 256 255 255 255 255 255 256 256 257 258 258 259 259 259 260 260 261 261 262 263 263 263 263 265 266 267 269 270 270 270 270 269 269 268 268 267 267 267 267 268 268 269 269 270 270 271 271
229 231 233 232 230 230 233 236 239 241 243 243 244 242 235 230 227 224 222 218 214 215 225 234 243 253 256 255 256 255 252 253 255 253 253 255 255 255 255 254 254 255 255 255 256 257 258 259 259 259 259 258 259 260 261 262 263 264 265 266 267 269 270 271 272 273 272 272 272 271 270 269 269 268 267 267 267 267 268 268 269 269 270 271 272 273
227 229 229 227 227 228 230 233 235 236 236 236 234 229 222 219 219 220 221 223 229 238 250 258 261 261 259 256 254 248 243 245 245 245 247 248 249 250 251 251 252 253 254 255 256 256 257 257 256 257 258 259 260 261 262 265 266 267 269 270 272 274 274 274 275 274 274 273 272 271 270 269 269 268 268 268 268 268 269 270 270 271 272 274 275 275
221 223 222 220 221 223 225 227 228 227 226 226 222 217 215 216 222 230 237 245 250 255 258 259 259 258 255 252 246 240 237 238 239 241 243 244 246 248 249 250 252 253 253 254 255 256 256 257 258 260 261 262 263 263 265 268 269 270 271 273 274 274 274 274 274 274 274 273 272 271 270 269 269 270 270 270 271 272 273 274 274 274 275 275 275 275
218 219 219 218 220 224 227 227 225 225 228 229 229 231 235 239 245 250 253 256 257 257 257 256 256 254 251 246 241 239 237 236 238 240 241 242 246 248 250 252 253 253 254 254 254 254 256 258 260 262 263 264 266 267 269 271 272 273 273 274 274 275 275 275 275 275 275 274 273 272 271 271 272 273 274 275 276 276 277 277 276 276 276 276 275 275
229 227 227 228 232 236 239 240 240 241 242 242 243 244 246 249 252 253 254 256 257 256 255 254 251 249 246 244 241 240 239 239 241 241 243 246 249 251 253 254 254 253 253 253 254 256 258 260 262 264 266 268 268 269 271 272 273 274 275 275 276 276 276 276 276 275 275 274 273 273 273 274 275 276 277 278 278 279 279 278 278 278 277 277 277 277
239 239 238 240 244 247 249 247 245 246 247 246 246 245 246 249 251 252 253 253 253 254 254 252 247 244 243 242 243 244 245 246 246 247 249 252 253 254 256 256 255 255 256 257 260 263 264 265 266 267 268 269 269 269 271 272 273 275 277 278 279 278 278 277 275 275 275 275 274 274 274 275 276 276 277 277 277 278 278 277 277 277 277 277 277 277
Height
3162 3161 3161 3163 3166 3167 3167 3167 3168 3169 3169 3169 3169 3169 3169 3168 3168 3169 3170 3169 3169 3167 3164 3164 3163 3162 3162 3163 3164 3163 3162 3161 3161 3161 3161 3162 3162 3162 3163 3163 3163 3164 3163 3163 3164 3163 3163 3164 3164 3165 3165 3166 3166 3167 3167 3168 3169 3170 3170 3170 3170 3171 3171 3171 3172 3173 3173 3174 3174 3174 3175 3175 3175 3176 3176 3177 3177 3178 3178 3179 3179 3180 3180 3180 3180 3180
3159 3157 3158 3163 3165 3165 3165 3165 3166 3166 3166 3167 3167 3166 3166 3166 3166 3167 3167 3166 3166 3164 3162 3162 3160 3158 3159 3159 3160 3160 3158 3157 3158 3158 3158 3158 3158 3158 3159 3159 3159 3160 3160 3160 3161 3160 3160 3160 3161 3161 3162 3163 3163 3164 3164 3165 3166 3167 3168 3168 3168 3169 3169 3169 3170 3171 3171 3172 3172 3172 3173 3173 3174 3175 3175 3176 3176 3177 3177 3178 3178 3178 3178 3178 3179 3179
3156 3155 3158 3161 3162 3162 3163 3163 3163 3163 3163 3164 3165 3164 3164 3164 3164 3164 3165 3164 3164 3162 3160 3159 3157 3154 3155 3156 3156 3156 3155 3155 3155 3155 3155 3154 3154 3154 3154 3155 3155 3155 3155 3156 3157 3157 3157 3157 3157 3158 3159 3160 3160 3161 3162 3162 3163 3164 3165 3166 3167 3167 3167 3166 3167 3168 3169 3169 3170 3170 3171 3172 3172 3173 3174 3174 3175 3175 3176 3177 3177 3177 3177 3177 3177 3177
3153 3154 3157 3159 3159 3160 3160 3161 3161 3161 3161 3162 3162 3162 3161 3162 3163 3162 3162 3162 3161 3160 3158 3156 3153 3149 3150 3151 3151 3153 3151 3151 3152 3151 3151 3150 3150 3150 3150 3151 3151 3151 3151 3151 3152 3152 3152 3153 3154 3155 3156 3156 3157 3158 3159 3160 3160 3162 3163 3164 3165 3165 3165 3165 3165 3166 3167 3167 3168 3169 3169 3170 3170 3171 3172 3172 3173 3174 3174 3175 3175 3175 3175 3175 3175 3175
3150 3153 3155 3156 3157 3158 3158 3158 3159 3159 3159 3159 3160 3160 3160 3161 3162 3160 3160 3159 3158 3157 3155 3155 3148 3141 3144 3146 3146 3149 3148 3147 3149 3148 3147 3147 3146 3146 3146 3146 3146 3147 3147 3147 3148 3148 3148 3149 3150 3151 3152 3153 3154 3155 3156 3157 3158 3159 3160 3161 3162 3163 3163 3163 3163 3164 3165 3166 3166 3167 3167 3168 3168 3169 3170 3171 3171 3172 3172 3172 3172 3173 3173 3173 3173 3173
3146 3150 3153 3153 3154 3155 3156 3156 3156 3157 3157 3157 3157 3158 3158 3159 3159 3159 3159 3158 3156 3154 3153 3154 3148 3136 3136 3141 3141 3144 3144 3144 3145 3144 3143 3144 3143 3142 3141 3141 3142 3142 3143 3144 3144 3144 3144 3145 3145 3147 3148 3149 3150 3152 3153 3154 3155 3156 3158 3159 3160 3161 3162 3162 3162 3162 3163 3164 3164 3164 3165 3166 3166 3167 3168 3169 3169 3170 3170 3170 3170 3170 3170 3170 3170 3170
3141 3146 3150 3150 3151 3152 3153 3152 3154 3155 3155 3155 3154 3156 3157 3157 3157 3157 3157 3156 3154 3153 3151 3152 3150 3136 3128 3133 3137 3139 3140 3140 3141 3140 3140 3140 3139 3138 3137 3137 3138 3138 3139 3140 3140 3141 3141 3141 3142 3143 3145 3146 3147 3148 3150 3151 3152 3153 3155 3156 3157 3158 3159 3159 3160 3160 3161 3162 3162 3162 3163 3163 3164 3165 3166 3167 3167 3167 3168 3168 3168 3168 3168 3168 3168 3168
3138 3143 3145 3146 3148 3149 3149 3149 3151 3152 3152 3151 3151 3154 3155 3154 3155 3155 3155 3155 3152 3151 3149 3149 3151 3140 3124 3124 3131 3134 3135 3135 3136 3137 3136 3136 3135 3134 3133 3133 3133 3134 3135 3136 3137 3137 3137 3137 3138 3139 3141 3142 3143 3145 3146 3148 3149 3150 3151 3152 3153 3154 3155 3156 3157 3158 3159 3159 3160 3160 3161 3161 3162 3163 3164 3164 3165 3165 3165 3165 3165 3166 3166 3166 3166 3166
3137 3139 3141 3143 3144 3144 3145 3147 3149 3150 3150 3149 3150 3152 3152 3152 3153 3152 3153 3152 3151 3150 3146 3145 3150 3143 3123 3119 3128 3129 3129 3131 3131 3133 3132 3132 3132 3131 3130 3129 3129 3130 3131 3132 3133 3133 3134 3134 3134 3135 3137 3139 3140 3141 3143 3145 3146 3147 3148 3149 3149 3151 3152 3153 3154 3156 3156 3157 3157 3158 3158 3159 3160 3161 3162 3162 3162 3162 3163 3163 3163 3163 3163 3163 3163 3163
3136 3137 3138 3140 3140 3140 3142 3145 3146 3147 3147 3147 3148 3149 3150 3150 3150 3151 3150 3150 3150 3146 3141 3142 3148 3142 3121 3115 3124 3126 3126 3127 3128 3129 3129 3128 3128 3127 3127 3126 3126 3126 3127 3128 3129 3129 3130 3130 3130 3131 3133 3135 3136 3138 3140 3141 3143 3144 3145 3146 3147 3148 3150 3151 3152 3153 3154 3154 3155 3155 3156 3157 3158 3159 3159 3160 3160 3160 3160 3161 3161 3161 3161 3160 3160 3160
3133 3134 3136 3136 3136 3137 3140 3142 3143 3145 3144 3145 3146 3146 3148 3148 3147 3149 3147 3148 3149 3140 3135 3139 3143 3141 3126 3113 3117 3122 3123 3125 3125 3125 3126 3125 3125 3124 3124 3124 3123 3123 3123 3124 3124 3125 3126 3126 3127 3128 3129 3131 3133 3135 3137 3138 3140 3141 3142 3143 3144 3146 3147 3148 3150 3150 3151 3152 3152 3153 3154 3155 3156 3156 3157 3157 3158 3158 3158 3158 3158 3158 3158 3158 3157 3157
3129 3130 3131 3131 3133 3134 3137 3139 3140 3141 3142 3142 3143 3144 3147 3146 3146 3146 3145 3147 3146 3134 3131 3135 3136 3137 3126 3112 3115 3119 3119 3122 3122 3122 3122 3122 3121 3121 3121 3121 3121 3121 3120 3120 3121 3121 3123 3123 3123 3125 3127 3128 3130 3132 3134 3136 3137 3138 3139 3141 3142 3143 3144 3146 3147 3148 3149 3149 3150 3151 3152 3153 3154 3154 3155 3155 3155 3155 3156 3155 3155 3155 3155 3155 3155 3154
3125 3125 3127 3128 3129 3131 3134 3136 3137 3137 3138 3139 3140 3142 3145 3145 3145 3145 3143 3143 3139 3130 3129 3132 3133 3129 3116 3109 3115 3117 3116 3119 3120 3120 3120 3119 3119 3118 3118 3118 3118 3118 3117 3117 3118 3118 3119 3120 3121 3123 3125 3126 3128 3130 3132 3133 3135 3136 3137 3138 3139 3141 3142 3143 3144 3145 3146 3147 3148 3149 3150 3151 3151 3152 3152 3153 3153 3153 3153 3153 3153 3152 3152 3152 3152 3151
3122 3122 3123 3124 3125 3126 3128 3130 3131 3131 3133 3133 3135 3138 3140 3143 3145 3143 3140 3138 3131 3127 3127 3130 3131 3122 3109 3108 3112 3113 3115 3117 3117 3118 3118 3117 3117 3116 3116 3116 3115 3115 3115 3114 3115 3116 3117 3118 3119 3120 3122 3124 3125 3128 3129 3131 3132 3133 3134 3136 3137 3138 3140 3141 3142 3143 3144 3145 3145 3146 3147 3148 3149 3149 3150 3150 3150 3150 3150 3150 3150 3150 3149 3149 3148 3148
3118 3116 3116 3119 3119 3120 3122 3123 3125 3127 3129 3129 3131 3134 3134 3136 3139 3136 3133 3131 3127 3125 3125 3127 3125 3115 3106 3106 3107 3109 3113 3114 3114 3115 3116 3115 3115 3113 3112 3112 3112 3112 3112 3112 3113 3114 3115 3116 3117 3118 3119 3121 3123 3125 3126 3128 3129 3130 3132 3133 3134 3136 3137 3138 3139 3140 3141 3142 3143 3144 3145 3146 3146 3147 3147 3147 3147 3147 3147 3147 3147 3146 3146 3145 3145 3144
3114 3111 3112 3115 3115 3117 3118 3119 3121 3124 3126 3127 3129 3131 3130 3130 3132 3130 3128 3126 3126 3124 3122 3121 3115 3106 3103 3104 3104 3107 3109 3110 3111 3111 3112 3112 3111 3110 3109 3108 3109 3110 3110 3110 3111 3112 3113 3114 3114 3115 3117 3118 3120 3122 3123 3125 3127 3128 3129 3131 3132 3133 3135 3136 3137 3138 3139 3140 3140 3141 3142 3143 3143 3144 3144 3144 3144 3144 3144 3144 3143 3143 3142 3142 3141 3141
3109 3108 3108 3111 3112 3115 3116 3116 3118 3119 3121 3123 3124 3124 3124 3127 3129 3129 3127 3125 3126 3124 3116 3111 3107 3102 3102 3099 3099 3104 3105 3106 3108 3107 3108 3109 3107 3107 3106 3105 3106 3107 3107 3108 3108 3110 3111 3112 3112 3113 3115 3116 3118 3119 3121 3123 3124 3126 3127 3128 3129 3131 3132 3133 3134 3135 3136 3137 3138 3139 3139 3140 3140 3141 3141 3141 3141 3141 3141 3140 3140 3140 3139 3138 3138 3137
3106 3105 3104 3107 3109 3111 3113 3114 3114 3115 3117 3118 3118 3119 3123 3126 3127 3128 3128 3126 3127 3123 3111 3105 3103 3100 3099 3094 3093 3099 3101 3102 3105 3105 3105 3105 3104 3104 3103 3103 3103 3104 3105 3105 3105 3107 3108 3109 3110 3111 3112 3114 3115 3117 3119 3120 3122 3123 3124 3126 3127 3128 3129 3131 3132 3133 3133 3134 3135 3135 3136 3137 3137 3137 3137 3137 3137 3137 3137 3137 3136 3136 3135 3135 3134 3133
3104 3103 3103 3104 3105 3108 3110 3111 3110 3111 3113 3114 3115 3117 3120 3122 3122 3124 3126 3123 3124 3121 3110 3102 3099 3094 3091 3090 3090 3094 3097 3100 3102 3102 3102 3102 3103 3102 3101 3101 3101 3101 3102 3103 3103 3104 3105 3107 3108 3109 3110 3111 3113 3115 3116 3118 3119 3121 3122 3123 3124 3125 3127 3128 3129 3129 3130 3131 3132 3132 3133 3133 3133 3134 3134 3134 3134 3134 3133 3133 3133 3132 3131 3131 3130 3129
3101 3101 3099 3099 3102 3106 3106 3105 3105 3106 3110 3112 3113 3114 3115 3116 3117 3118 3119 3117 3117 3118 3110 3102 3094 3085 3082 3085 3089 3091 3094 3096 3098 3099 3100 3101 3101 3101 3100 3099 3099 3099 3100 3101 3102 3103 3104 3106 3106 3107 3108 3109 3111 3113 3114 3116 3117 3118 3119 3120 3121 3122 3123 3124 3125 3126 3127 3127 3128 3129 3129 3130 3130 3130 3130 3130 3130 3130 3130 3129 3129 3128 3127 3127 3126 3125
3098 3097 3096 3097 3099 3100 3098 3099 3100 3102 3104 3105 3107 3110 3111 3112 3114 3114 3113 3112 3112 3112 3108 3102 3090 3078 3079 3083 3085 3088 3091 3093 3095 3096 3098 3099 3098 3099 3099 3098 3097 3098 3099 3100 3101 3102 3103 3104 3104 3105 3106 3107 3109 3110 3112 3113 3114 3115 3116 3117 3118 3119 3120 3121 3122 3122 3123 3124 3125 3125 3125 3126 3126 3126 3127 3127 3127 3126 3126 3125 3125 3124 3123 3122 3122 3121
3092 3093 3093 3093 3092 3092 3093 3096 3099 3100 3099 3099 3101 3102 3103 3106 3109 3110 3109 3106 3107 3106 3102 3101 3088 3073 3077 3083 3083 3086 3089 3090 3093 3094 3095 3096 3096 3097 3097 3096 3096 3096 3097 3098 3099 3100 3101 3101 3102 3103 3104 3105 3106 3108 3109 3110 3111 3112 3113 3114 3115 3116 3117 3118 3118 3119 3120 3120 3121 3121 3122 3122 3122 3123 3123 3123 3123 3122 3122 3121 3121 3120 3119 3118 3118 3117
3088 3090 3090 3089 3088 3089 3092 3095 3096 3097 3097 3097 3097 3097 3101 3103 3102 3103 3102 3101 3103 3101 3097 3101 3088 3069 3071 3080 3081 3084 3086 3087 3090 3091 3092 3094 3094 3095 3095 3094 3095 3094 3095 3096 3096 3098 3098 3099 3100 3101 3102 3103 3104 3105 3106 3107 3108 3109 3110 3111 3112 3113 3114 3114 3115 3116 3116 3117 3117 3118 3118 3118 3119 3119 3119 3119 3119 3119 3118 3117 3116 3116 3115 3114 3113 3113
3086 3087 3088 3088 3087 3088 3090 3091 3091 3092 3092 3092 3093 3095 3098 3096 3095 3098 3099 3098 3100 3094 3093 3100 3087 3067 3068 3076 3078 3081 3083 3084 3087 3088 3090 3091 3091 3092 3092 3092 3093 3092 3092 3093 3094 3095 3096 3096 3097 3098 3099 3100 3101 3103 3104 3105 3106 3106 3107 3108 3109 3110 3110 3111 3111 3112 3112 3113 3113 3114 3114 3114 3115 3115 3115 3115 3115 3115 3114 3113 3112 3111 3110 3110 3109 3108
3082 3082 3085 3087 3087 3086 3086 3085 3085 3085 3087 3088 3089 3092 3092 3092 3095 3097 3097 3098 3094 3085 3089 3095 3079 3064 3069 3074 3074 3078 3080 3081 3084 3085 3087 3088 3088 3089 3090 3090 3091 3090 3090 3091 3091 3092 3092 3093 3095 3095 3096 3097 3098 3100 3101 3102 3103 3103 3104 3105 3105 3106 3107 3107 3108 3108 3108 3109 3109 3110 3110 3111 3111 3111 3111 3111 3111 3111 3110 3109 3108 3107 3106 3106 3105 3104
3076 3075 3077 3080 3080 3078 3074 3073 3074 3077 3082 3084 3084 3085 3086 3088 3090 3090 3092 3094 3086 3078 3084 3084 3069 3063 3070 3072 3072 3075 3076 3077 3081 3082 3083 3084 3085 3085 3086 3087 3087 3088 3088 3088 3088 3089 3090 3090 3092 3092 3093 3094 3095 3097 3098 3099 3100 3100 3101 3102 3102 3103 3103 3103 3103 3103 3104 3104 3105 3106 3106 3107 3107 3107 3107 3107 3107 3106 3105 3104 3104 3103 3102 3101 3101 3100
3071 3069 3069 3070 3068 3066 3063 3065 3069 3073 3077 3078 3077 3079 3080 3081 3084 3086 3087 3082 3075 3078 3077 3067 3064 3066 3066 3068 3070 3071 3072 3074 3076 3078 3079 3080 3081 3082 3083 3084 3084 3084 3085 3085 3085 3085 3086 3087 3089 3090 3091 3091 3092 3094 3095 3096 3096 3097 3098 3098 3099 3099 3099 3099 3100 3100 3100 3100 3101 3102 3102 3103 3103 3103 3103 3103 3102 3102 3101 3100 3099 3098 3098 3097 3096 3095
3065 3063 3064 3063 3062 3062 3062 3065 3068 3069 3070 3071 3072 3074 3075 3076 3079 3080 3076 3068 3071 3079 3067 3056 3065 3066 3057 3061 3068 3067 3070 3072 3072 3074 3075 3076 3078 3079 3079 3080 3080 3081 3081 3081 3081 3082 3083 3085 3086 3086 3087 3088 3089 3090 3091 3092 3093 3094 3094 3095 3095 3095 3095 3096 3096 3096 3096 3097 3097 3098 3099 3099 3099 3098 3098 3098 3098 3097 3096 3095 3095 3094 3093 3092 3092 3091
3059 3058 3059 3059 3059 3059 3060 3063 3064 3063 3064 3065 3067 3068 3069 3072 3072 3067 3062 3062 3069 3073 3059 3054 3064 3059 3050 3057 3064 3064 3068 3069 3067 3070 3071 3072 3074 3074 3075 3076 3076 3077 3077 3078 3079 3079 3080 3081 3082 3083 3083 3084 3085 3087 3088 3088 3089 3090 3090 3091 3091 3092 3092 3092 3092 3092 3093 3093 3093 3094 3094 3094 3094 3094 3094 3093 3093 3092 3092 3091 3090 3089 3088 3088 3087 3086
3054 3054 3055 3056 3055 3054 3054 3057 3059 3059 3060 3060 3061 3063 3063 3063 3060 3056 3057 3061 3066 3065 3055 3055 3060 3052 3047 3055 3059 3061 3065 3064 3064 3067 3067 3068 3069 3069 3070 3071 3071 3073 3073 3074 3075 3076 3076 3077 3077 3078 3079 3079 3081 3083 3084 3085 3085 3086 3086 3087 3088 3088 3088 3088 3088 3088 3089 3089 3089 3090 3090 3089 3089 3089 3089 3088 3088 3088 3087 3086 3085 3084 3084 3083 3082 3081
3049 3049 3050 3051 3051 3048 3047 3051 3054 3055 3056 3055 3056 3057 3055 3052 3050 3052 3056 3059 3061 3056 3050 3054 3056 3045 3042 3051 3055 3057 3059 3059 3060 3061 3061 3063 3064 3064 3066 3067 3067 3068 3069 3070 3071 3071 3072 3073 3073 3074 3075 3076 3077 3079 3080 3081 3081 3081 3082 3083 3083 3083 3084 3084 3084 3084 3084 3084 3085 3085 3085 3084 3084 3084 3084 3084 3084 3083 3083 3082 3080 3080 3079 3078 3078 3077
3044 3044 3045 3047 3046 3042 3041 3045 3049 3050 3051 3052 3050 3045 3041 3041 3044 3048 3050 3050 3050 3048 3048 3053 3048 3035 3036 3048 3052 3051 3053 3055 3055 3056 3057 3058 3059 3059 3061 3062 3063 3064 3065 3066 3067 3067 3068 3068 3069 3070 3071 3072 3073 3074 3076 3077 3077 3077 3078 3078 3079 3079 3079 3079 3079 3079 3079 3080 3080 3080 3080 3079 3079 3079 3079 3079 3079 3079 3078 3077 3075 3075 3074 3074 3073 3072
3040 3040 3041 3042 3041 3038 3037 3040 3044 3046 3047 3043 3036 3029 3030 3036 3041 3041 3041 3041 3042 3044 3045 3043 3035 3031 3038 3046 3045 3045 3048 3048 3049 3051 3053 3054 3054 3055 3056 3057 3058 3059 3061 3062 3062 3063 3064 3064 3065 3066 3066 3067 3068 3070 3072 3072 3072 3073 3073 3073 3073 3073 3073 3073 3073 3074 3074 3075 3075 3075 3075 3074 3074 3074 3074 3074 3074 3073 3072 3071 3070 3070 3069 3069 3068 3066
3034 3035 3036 3037 3036 3034 3034 3037 3040 3041 3035 3026 3021 3023 3028 3033 3034 3033 3033 3033 3036 3037 3035 3033 3030 3032 3037 3038 3037 3039 3041 3041 3044 3046 3047 3048 3049 3050 3051 3052 3054 3054 3056 3057 3057 3058 3059 3060 3061 3061 3061 3062 3063 3065 3067 3066 3067 3068 3067 3067 3067 3067 3067 3067 3068 3068 3069 3070 3070 3070 3069 3069 3069 3069 3070 3069 3069 3068 3067 3066 3065 3065 3064 3063 3062 3061
3029 3030 3031 3031 3031 3030 3031 3034 3034 3027 3019 3015 3018 3022 3025 3025 3027 3028 3028 3028 3030 3030 3028 3028 3027 3028 3031 3032 3033 3034 3035 3037 3039 3039 3040 3041 3043 3045 3047 3047 3048 3049 3050 3051 3052 3053 3054 3055 3055 3055 3056 3057 3058 3059 3061 3061 3062 3062 3062 3062 3061 3061 3062 3062 3062 3062 3063 3064 3064 3064 3064 3064 3064 3064 3064 3064 3063 3062 3061 3061 3060 3059 3058 3058 3057 3056
3023 3025 3025 3025 3026 3026 3027 3026 3021 3014 3011 3013 3016 3016 3016 3018 3021 3024 3023 3021 3023 3024 3023 3022 3021 3023 3027 3028 3029 3030 3031 3032 3033 3032 3033 3035 3037 3041 3042 3043 3044 3044 3045 3046 3047 3047 3048 3049 3049 3050 3050 3051 3052 3054 3055 3056 3056 3056 3055 3055 3055 3055 3056 3056 3056 3057 3058 3059 3059 3058 3059 3059 3059 3058 3058 3058 3057 3057 3056 3055 3054 3054 3053 3052 3051 3050
3017 3018 3019 3019 3019 3019 3019 3017 3013 3011 3010 3008 3007 3007 3009 3013 3016 3018 3016 3014 3016 3018 3019 3018 3017 3019 3022 3023 3024 3026 3027 3027 3027 3025 3026 3030 3034 3037 3038 3038 3038 3038 3039 3040 3040 3041 3042 3043 3043 3045 3045 3046 3048 3049 3050 3050 3050 3050 3050 3050 3050 3050 3051 3051 3052 3053 3054 3054 3053 3053 3054 3053 3053 3053 3052 3052 3052 3051 3051 3050 3049 3048 3047 3046 3046 3045
3011 3012 3013 3013 3011 3012 3013 3011 3011 3011 3004 2997 2999 3003 3006 3009 3011 3013 3012 3008 3008 3011 3013 3013 3013 3014 3017 3019 3019 3020 3022 3021 3019 3019 3022 3027 3030 3031 3032 3033 3033 3033 3034 3035 3035 3036 3037 3038 3039 3040 3041 3042 3043 3044 3044 3044 3044 3044 3044 3045 3045 3046 3046 3047 3048 3049 3049 3049 3048 3048 3048 3048 3047 3047 3046 3046 3046 3046 3045 3044 3043 3042 3042 3041 3041 3040
3004 3006 3008 3007 3005 3007 3008 3006 3005 3002 2996 2993 2996 2999 3002 3004 3006 3009 3009 3003 3000 3003 3007 3008 3009 3009 3011 3013 3013 3014 3016 3015 3013 3016 3021 3024 3025 3026 3027 3028 3028 3029 3029 3030 3031 3032 3032 3033 3035 3036 3037 3038 3038 3038 3038 3038 3039 3039 3039 3040 3040 3041 3041 3043 3044 3044 3044 3043 3043 3042 3042 3042 3041 3041 3041 3041 3041 3040 3040 3039 3038 3037 3036 3036 3035 3035
2997 3000 3001 3001 3000 3001 3002 3000 2998 2995 2992 2993 2994 2995 2997 3001 3003 3006 3004 2997 2995 2999 3001 3003 3004 3005 3006 3008 3008 3009 3010 3009 3012 3016 3019 3019 3020 3021 3022 3022 3023 3024 3024 3025 3027 3027 3028 3029 3030 3031 3032 3032 3032 3033 3033 3033 3033 3034 3034 3035 3035 3036 3038 3039 3039 3038 3037 3037 3037 3036 3036 3036 3036 3036 3036 3036 3036 3035 3034 3033 3033 3032 3031 3031 3030 3029
2990 2992 2993 2994 2994 2996 2997 2995 2993 2990 2989 2991 2992 2992 2995 2998 2999 2999 2996 2993 2994 2996 2996 2998 2999 3000 3001 3002 3003 3004 3005 3007 3010 3012 3013 3014 3015 3016 3017 3018 3019 3020 3021 3022 3023 3024 3025 3025 3026 3026 3027 3027 3027 3028 3028 3028 3029 3029 3030 3031 3031 3033 3034 3034 3032 3031 3031 3031 3031 3031 3031 3031 3031 3031 3031 3031 3030 3030 3029 3028 3028 3027 3026 3026 3025 3024
2983 2985 2987 2988 2988 2990 2991 2990 2989 2987 2985 2986 2988 2990 2992 2994 2992 2990 2990 2991 2993 2993 2993 2995 2996 2996 2997 2998 2999 3000 3002 3003 3005 3006 3008 3009 3010 3012 3013 3014 3015 3016 3018 3018 3019 3020 3021 3021 3021 3022 3022 3022 3022 3023 3023 3024 3025 3025 3026 3027 3028 3028 3028 3026 3025 3025 3025 3026 3026 3026 3026 3026 3026 3026 3026 3025 3025 3024 3024 3023 3023 3022 3021 3021 3020 3019
2975 2978 2979 2980 2981 2984 2986 2986 2985 2981 2979 2981 2984 2986 2987 2988 2987 2987 2988 2990 2990 2990 2992 2993 2993 2994 2994 2995 2996 2997 2998 3000 3001 3002 3004 3005 3006 3008 3009 3010 3012 3013 3014 3015 3015 3016 3016 3016 3017 3017 3017 3018 3018 3019 3019 3020 3021 3021 3022 3022 3022 3022 3021 3020 3021 3021 3021 3021 3021 3022 3022 3022 3021 3021 3020 3020 3020 3019 3018 3018 3017 3017 3016 3016 3015 3015
2969 2971 2971 2972 2974 2977 2978 2978 2977 2975 2975 2978 2980 2981 2982 2983 2984 2985 2986 2987 2988 2989 2989 2990 2991 2992 2992 2993 2995 2995 2996 2997 2998 2999 3000 3002 3003 3004 3005 3007 3008 3009 3010 3011 3011 3011 3012 3012 3012 3013 3013 3014 3014 3015 3016 3016 3016 3016 3017 3017 3017 3016 3016 3016 3016 3016 3016 3016 3016 3017 3016 3016 3016 3015 3015 3015 3014 3013 3013 3013 3012 3012 3011 3011 3010 3010
2962 2964 2965 2967 2969 2970 2971 2971 2971 2972 2974 2975 2976 2978 2979 2980 2980 2982 2983 2984 2985 2986 2987 2988 2989 2990 2991 2992 2993 2993 2994 2995 2995 2997 2998 2998 2999 3001 3002 3003 3004 3005 3006 3006 3007 3007 3008 3008 3009 3009 3010 3010 3010 3011 3011 3011 3011 3011 3012 3012 3011 3011 3011 3012 3011 3011 3012 3012 3011 3011 3011 3010 3010 3010 3009 3009 3009 3008 3008 3008 3007 3007 3006 3006 3005 3005
2957 2959 2961 2963 2965 2966 2967 2967 2969 2970 2971 2972 2973 2975 2976 2976 2977 2979 2980 2981 2983 2984 2985 2986 2987 2988 2989 2989 2990 2991 2991 2992 2993 2994 2995 2996 2997 2998 2999 3000 3001 3001 3002 3003 3003 3004 3005 3005 3005 3006 3006 3006 3006 3006 3006 3007 3007 3007 3007 3007 3007 3007 3007 3007 3007 3007 3007 3006 3006 3006 3005 3005 3005 3005 3004 3004 3004 3004 3003 3003 3002 3002 3001 3001 3000 3000
2954 2956 2958 2959 2961 2962 2963 2963 2965 2967 2968 2969 2971 2972 2973 2975 2976 2977 2978 2979 2980 2981 2982 2983 2984 2985 2985 2986 2987 2988 2988 2989 2991 2992 2993 2994 2995 2996 2996 2997 2998 2998 2999 3000 3000 3001 3001 3002 3002 3002 3002 3002 3002 3003 3003 3002 3002 3002 3002 3002 3003 3003 3003 3002 3002 3002 3002 3002 3001 3001 3001 3001 3000 3000 3000 3000 2999 2999 2998 2998 2997 2997 2996 2996 2995 2994
2951 2953 2955 2956 2957 2958 2959 2960 2962 2964 2965 2967 2968 2969 2971 2972 2973 2974 2975 2976 2977 2978 2979 2979 2980 2980 2981 2982 2984 2985 2986 2987 2988 2989 2991 2992 2993 2993 2994 2995 2995 2996 2996 2997 2997 2998 2998 2998 2998 2998 2998 2998 2998 2999 2999 2998 2998 2998 2998 2998 2998 2998 2998 2998 2998 2997 2997 2997 2997 2997 2996 2996 2996 2996 2995 2995 2994 2994 2993 2993 2993 2992 2991 2991 2990 2989
2949 2950 2951 2953 2954 2955 2956 2958 2960 2961 2962 2964 2965 2967 2968 2969 2970 2971 2972 2972 2973 2974 2975 2976 2976 2977 2978 2979 2980 2982 2983 2984 2986 2987 2988 2989 2990 2991 2991 2992 2993 2993 2993 2994 2994 2994 2995 2995 2995 2995 2995 2995 2995 2995 2994 2994 2994 2994 2994 2994 2994 2994 2994 2994 2994 2993 2993 2993 2993 2992 2992 2992 2991 2991 2991 2990 2990 2989 2989 2988 2987 2986 2986 2985 2984 2983
2945 2947 2948 2950 2951 2952 2953 2956 2957 2958 2959 2961 2962 2964 2964 2965 2966 2967 2968 2969 2970 2971 2972 2973 2973 2974 2975 2977 2978 2979 2980 2981 2983 2984 2985 2986 2987 2988 2988 2989 2990 2990 2990 2991 2991 2991 2992 2992 2992 2991 2991 2991 2991 2991 2990 2990 2990 2990 2990 2990 2989 2990 2990 2989 2989 2989 2989 2989 2989 2988 2988 2987 2987 2986 2986 2985 2985 2984 2983 2983 2982 2981 2980 2979 2978 2976
2942 2944 2946 2947 2948 2949 2951 2953 2954 2955 2956 2958 2959 2961 2961 2962 2963 2964 2965 2966 2967 2967 2968 2969 2970 2972 2973 2974 2975 2976 2977 2979 2980 2981 2982 2983 2984 2984 2985 2986 2986 2987 2988 2988 2988 2988 2988 2988 2988 2988 2987 2987 2987 2987 2986 2986 2986 2986 2986 2986 2986 2986 2985 2985 2985 2985 2985 2984 2984 2983 2983 2983 2982 2982 2981 2980 2980 2979 2978 2977 2976 2975 2974 2973 2971 2970